UEEEUHMM

Guest
Details From UEEE - Yakutsk
To UHMM - Magadan Sokol
Flight Number -
Tags decoded
Created
Modified
Stats Distance 624 nm / 1,155 km
Max Altitude 0 ft / 0 m
Waypoints 5
Social Downloads 1
Likes 0
Share VATSIM

Download

Looking for another format? Having issues loading an existing format? Contact us
Advertisement - Login to hide

Notes

Requested: UEEE RITIS G370 INLIR A949 BISMA UHMM Unmatched points: G370 A949

Route

UEEE RITIS INLIR BISMA UHMM

ID Type Via Altitude Latitude Longitude Leg Dist Tot Dist Heading (true) Name
O UEEE APT - 0 ft / 0 m 62.09325˚ 129.77068˚ - 0 nm - Yakutsk
RITIS FIX - 0 ft / 0 m 61.92722˚ 132.61806˚ 80 nm 80 nm 96° / 98° -
INLIR FIX - 0 ft / 0 m 60.30694˚ 145.94028˚ 397 nm 478 nm 98° / 110° -
BISMA FIX - 0 ft / 0 m 59.98306˚ 149.97750˚ 122 nm 600 nm 97° / 101° -
O UHMM APT - 0 ft / 0 m 59.91099˚ 150.72044˚ 22 nm 623 nm 101° / 101° Magadan Sokol

Altitude Profile

Advertisement - Login to hide

Weather


0- 5 10 15 20 25 30 35+ Temperature / ° C

Clouds and Precipitation
Forecast for 2018-05-22 12:00 UTC. Updated 5 hours ago

Ground ~20,000 ft ~40,000 ft Winds

UEEE

Details ICAO UEEE (YKS)
Name Yakutsk
Region Russia
Timezone Asia/Yakutsk (UTC+9.0)
Stats Elevation 325 ft / 99 m (AMSL)
Location 62.093249° 129.770678°
Runways 2
Magnetic Variation 15.677° W

METAR

UEEE 221600Z 09004MPS 9999 SCT050CB 09/M02 Q0999 R23L/09//60 NOSIG RMK QFE740

Decode

TAF

TAF UEEE 221400Z 2215/2321 12006G12MPS 9999 BKN020CB OVC080 TEMPO 2218/2306 -SHRA

Decode

Departure Runways

ID Width Length Bearing (true) Bearing (mag) Surface Threshold Offset Overrun Length
05L 161 ft / 49 m 8,171 ft / 2,491 m 29.51° 45.19° Concrete 0 ft / 0 m 154 ft / 47 m
05R 197 ft / 60 m 11,120 ft / 3,389 m 36.88° 52.56° Asphalt 0 ft / 0 m 226 ft / 69 m
23L 197 ft / 60 m 11,120 ft / 3,389 m 216.92° 232.60° Asphalt 0 ft / 0 m 226 ft / 69 m
23R 161 ft / 49 m 8,171 ft / 2,491 m 209.53° 225.21° Concrete 3,399 ft / 1,036 m 164 ft / 50 m

UHMM

Details ICAO UHMM (GDX)
Name Magadan Sokol
Region Russia
Timezone Asia/Magadan (UTC+11.0)
Stats Elevation 574 ft / 175 m (AMSL)
Location 59.910989° 150.720439°
Runways 1
Magnetic Variation 10.995° W

METAR

UHMM 221600Z 05002MPS 300V110 9999 NSC 04/01 Q1003 RMK QFE737

Decode

TAF

TAF UHMM 221409Z 2215/2321 02003G09MPS 9999 SCT030 BKN070 TEMPO 2221/2310 11003G08MPS

Decode

Destination Runways

ID Width Length Bearing (true) Bearing (mag) Surface Threshold Offset Overrun Length
10 194 ft / 59 m 11,299 ft / 3,444 m 93.20° 104.20° Concrete 0 ft / 0 m 1,975 ft / 602 m
28 194 ft / 59 m 11,299 ft / 3,444 m 273.26° 284.26° Concrete 0 ft / 0 m 220 ft / 67 m

Approach Navaids

Runway Type Ident Frequency Range Bearing (true) Bearing (mag) Slope Elevation
10 Glidescope IFK 110.30 MHz 50 nm / 93 km 104.00° 115.00° 2.80° 574 ft / 175 m (AMSL)

Popular Alternatives